Flag for Isle of Man Weather past 2 weeks in Ramsey, Isle of Man

Now
55 °F

Passing clouds.


Feels Like: 52 °F
Forecast: 53 / 60 °F
Wind: 12 mph from North

Location: Isle Of Man / Ronaldsway Airport

Current Time: Sep 5, 2015 at 9:45:59 AM

Latest Report: Sep 5, 2015 at 9:20 AM


Visibility: N/A

Pressure: 30.24 "Hg

Humidity: 59%

Dew point: 41 °F

Location of RamseyLocation

Historic Weather in Ramsey — Graph

°F

Ramsey temperature yesterday

Maximum temperature yesterday: 59 °F (at 12:50 PM)
Minimum temperature yesterday: 54 °F (at 12:50 AM)
Average temperature yesterday: 56 °F

Past Weeks' High & Low Weather Summary

 TemperatureHumidityPressure
High68 °F (Aug 23, 12:50 PM)100% (Aug 22, 2:50 AM)30.21 "Hg (Aug 22, 2:50 AM)
Low50 °F (Aug 25, 4:50 AM)51% (Sep 3, 12:20 PM)29.30 "Hg (Aug 26, 7:50 AM)
Average58 °F81%29.85 "Hg
* Reported Aug 21 8:20 AM — Sep 5 8:20 AM, Ramsey, Weather by CustomWeather, © 2015

Note: Actual official high and low records may vary slightly from our data, if they occured in-between our weather recording intervals... More about our weather records

Advertising

Ramsey weather history for previous 24 hours

 ConditionsComfort  
Time TempWeatherWind HumidityBarometerVisibility
8:20 AM
Sat, Sep 5
54 °FScattered clouds.9 mph67%30.21 "HgN/A
7:50 AM52 °FPartly sunny.8 mph72%30.21 "HgN/A
6:50 AM52 °FPassing clouds.9 mph77%30.18 "HgN/A
6:20 AM54 °FPassing clouds.7 mph77%30.18 "HgN/A
5:50 AM54 °FPassing clouds.9 mph82%30.15 "HgN/A
5:20 AM54 °FPassing clouds.12 mph82%30.15 "HgN/A
4:50 AM54 °FPassing clouds.14 mph82%30.12 "HgN/A
3:50 AM54 °FPassing clouds.14 mph82%30.12 "HgN/A
2:50 AM54 °FPassing clouds.15 mph82%30.12 "HgN/A
1:50 AM55 °FPassing clouds.14 mph82%30.09 "HgN/A
12:50 AM55 °FPartly cloudy.18 mph82%30.09 "HgN/A
12:20 AM55 °FPartly cloudy.17 mph82%30.09 "HgN/A
11:50 PM
Fri, Sep 4
55 °FLight rain. Passing clouds.16 mph82%30.09 "HgN/A
11:20 PM55 °FPassing clouds.15 mph88%30.09 "HgN/A
10:20 PM55 °FPartly cloudy.14 mph77%30.09 "HgN/A
9:50 PM55 °FMostly cloudy.15 mph82%30.09 "HgN/A
9:20 PM55 °FLight rain. Mostly cloudy.16 mph88%30.09 "HgN/A
8:50 PM57 °FPartly sunny.12 mph82%30.09 "HgN/A
8:20 PM55 °FLight rain. Mostly cloudy.14 mph94%30.09 "Hg5 mi
7:50 PM57 °FPartly sunny.10 mph82%30.09 "HgN/A
7:20 PM57 °FPartly sunny.12 mph88%30.09 "HgN/A
6:50 PM57 °FMostly cloudy.12 mph88%30.09 "HgN/A
6:20 PM57 °FDrizzle. Partly sunny.15 mph88%30.09 "Hg3 mi
5:20 PM57 °FPartly sunny.18 mph82%30.12 "HgN/A
4:50 PM59 °FScattered clouds.18 mph77%30.12 "HgN/A
4:20 PM59 °FBroken clouds.22 mph77%30.09 "HgN/A
3:50 PM57 °FBroken clouds.24 mph82%30.09 "HgN/A
3:20 PM59 °FPassing clouds.22 mph72%30.09 "HgN/A
2:50 PM57 °FPassing clouds.20 mph77%30.12 "HgN/A
2:20 PM57 °FPassing clouds.17 mph72%30.12 "HgN/A
1:50 PM59 °FPassing clouds.16 mph68%30.12 "HgN/A
1:20 PM59 °FPassing clouds.20 mph68%30.12 "HgN/A
12:50 PM59 °FScattered clouds.14 mph68%30.12 "HgN/A
12:20 PM57 °FScattered clouds.20 mph67%30.12 "HgN/A
11:50 AM57 °FScattered clouds.15 mph67%30.12 "HgN/A
11:20 AM57 °FPassing clouds.16 mph63%30.12 "HgN/A
10:50 AM57 °FPassing clouds.17 mph63%30.12 "HgN/A
10:20 AM55 °FPassing clouds.16 mph67%30.12 "HgN/A
9:50 AM55 °FPassing clouds.15 mph67%30.12 "HgN/A
9:20 AM55 °FPassing clouds.15 mph67%30.12 "HgN/A
Weather by CustomWeather, © 2015

See weather overviewHow to use our weather pages